Weather in Staryy Belyy Yar

Russia / Ulyanovsk Oblast     53°58′56″N   48°54′00″E
temp.,
°C
wind,
m/s
gust,
m/s
humid.,
%
clouds,
%
prec.,
mm/h
press.,
hPa
HPBL,
m
13 june, sun
sun1301:00+15s3393100 0.2 101232
04:00+15sse34935 0.2 101257
07:00+17s35884 0.0 1013138
10:00+19sse568028 0.6 1013286
13:00+22s686493 0.6 10131007
16:00+23s47644 0.7 10131052
19:00+17sw91391100 4.4 1014305
22:00+15s3693100 4.8 101498
14 june, mon
mon1401:00+16s338976 0.0 101434
04:00+15s3392100 0.0 101543
07:00+17s1286100 0.0 101666
10:00+19sse2282100 0.1 1017177
13:00+21sse1270100 0.0 1016298
16:00+24se1265100 0.4 1016419
19:00+23e117294 0.4 101511
22:00+19nnw228298 1.1 101512
15 june, tue
tue1501:00+18nne238979 0.1 101421
04:00+17nne2292100 0.4 101431
07:00+18e1292100 0.3 101483
10:00+19s238685 0.3 1014178
13:00+19sse2486100 0.0 1014150
16:00+22s2476100 0.6 1013299
19:00+21sse2281100 0.0 101230
22:00+20ene228186 0.0 101124
16 june, wed
wed1601:00+18e3379100 0.0 101127
04:00+18ene3475100 0.0 100959
07:00+19e498380 0.0 1008185
10:00+22ese57665 0.0 1007421
13:00+23s46585 0.0 1007577
16:00+25ssw466158 0.0 1006681
19:00+24sw347310 0.0 1006111
22:00+20w478368 0.2 1007102
17 june, thu
thu1701:00+18wnw6129530 0.0 1008320
04:00+17nw81287100 0.1 1010533
07:00+16nw9148326 0.0 1012631
10:00+18nnw912650 0.0 1015794
13:00+19nnw1013550 0.0 10161105
16:00+20nnw811551 0.0 10171459
19:00+19n610631 0.0 1019494
22:00+15nnw45776 0.0 102063